Regional Weather Roundup
Issued by NWS Goodland, KS

Home | Current Version | Previous Version | Text Only | Print | Product List | Glossary On
Versions: 1 2 3 4 5 6 7 8 9 10 11 12 13 14 15 16 17 18 19 20 21 22 23 24 25 26 27 28 29 30 31 32 33 34 35 36 37 38 39 40 41 42 43 44 45 46 47 48 49 50
000
ASUS43 KGLD 250659
RWRGLD

GOODLAND FORECAST AREA HOURLY WEATHER ROUNDUP
NATIONAL WEATHER SERVICE GOODLAND KS
100 AM MDT TUE APR 25 2017

...OFFICIAL OBSERVATIONS...

CITY           SKY/WX    TMP DP  RH WIND       PRES   REMARKS
GOODLAND KS    CLOUDY    53  43  68 NE14      29.48F
HILL CITY KS   CLOUDY    59  46  62 E13       29.46F
IMPERIAL NEB   RAIN      48  45  89 E21       29.52F
MCCOOK NEB     MOCLDY    55  42  61 NE21      29.50F
AKRON CO       MOCLDY    47  41  80 E13       29.52F
BURLINGTON CO  NOT AVBL
LIMON CO       CLOUDY    47  38  71 E12G23    29.51F
$$

...UNOFFICIAL OBSERVATIONS...

CITY           SKY/WX    TMP DP  RH WIND       PRES   REMARKS
LENORA KS        N/A     56  32  40 MISG        N/A
NORTON KS      CLOUDY    55  39  54 NE15G21   29.49S
SHARON SPRINGS   N/A     52  44  75 N5          N/A
TRENTON NEB      N/A     50  32  50 NE9         N/A
YUMA CO        FAIR      45  41  87 NE7       29.49S
$$




USA.gov is the U.S. government's official web portal to all federal, state and local government web resources and services.